Meteopurmerend
purmerend
Purmerend - Baaienwijk



My webcam  My webcam


Onweer radar Meer informatie blitzortung!


Regen radar Meer informatie rain snow radar


Bezoek onze andere website:

CandyAppleRed WebdesignWebdesign Purmerend Candy Apple Red

MeteopurmerendBlog

Template documentation
and downloads



Het weer levert geen direct gevaar op.    Er zijn geen waarschuwingen afgegeven.

15 daagse weersverwachting Tromsø (NO)

  • Overzicht
  • Per uur
  • 15 dagen
  • Extra
  • Vergelijk
  • Kaarten
  • Dagkaart
  • Meer »
  • Info
  • Statistieken
  • Directe link
    Temp 6h Neerslag Wind  
 05:32     20:04    Daglengte: 14:32 Vandaag
08:00
-6°
 
3
14:00
-3°
1.2 mm
5
warningclass
20:00
-4°
6.9 mm
3
warningclass
 05:27     20:08    Daglengte: 14:41 Morgen
02:00
-5°
9.4 mm
6
warningclass
08:00
-4°
11.6 mm
4
warningclass
14:00
-2°
 
6
20:00
-3°
 
5
 05:23     20:12    Daglengte: 14:49 Maandag 06 Apr
02:00
-4°
 
6
08:00
-4°
 
4
14:00
 
4
20:00
46.6 mm
6
warningclass
Locatie info
Region: Troms
Latitude: 69.6514°N
Longitude: 18.9561°E
0 masl
Postcode: 9008
Temp/Neerslag /Baro Onweer/DauwpuntSneeuw
    Temp Baro 1h Neerslag Dauwpunt Wind UV BewolkingSneeuw  
 05:32     20:04    Daglengte: 14:32 Vandaag
05:00
-7°
Voelt als: -10.4°
994.7 hPa
27%
-10.2°
2
Windvlaag: 2.8 m/s
26%64 cm
06:00
-7°
Voelt als: -10.6°
995.5 hPa
35%
-9.9°
2
Windvlaag: 2.5 m/s
48%64 cm
07:00
-6°
Voelt als: -10.8°
996.1 hPa
70%
-9.1°
3
Windvlaag: 3.4 m/s
58%64 cm
08:00
-6°
Voelt als: -11.1°
996.8 hPa
77%
-9.3°
3
Windvlaag: 4.3 m/s
68%64 cm
09:00
-5°
Voelt als: -10.8°
997.4 hPa
75%
-9.0°
4
Windvlaag: 5.5 m/s
57%64 cm
10:00
-5°
Voelt als: -9.9°
998.2 hPa
80%
-8.3°
4
Windvlaag: 6.4 m/s
71%64 cm
11:00
-4°
Voelt als: -9.0°
999.2 hPa
82%
-7.5°
4
Windvlaag: 6.7 m/s
72%65 cm
12:00
-3°
Voelt als: -9.1°
1000.0 hPa
80%
-7.7°
5
Windvlaag: 7.8 m/s
69%64 cm
13:00
-3°
Voelt als: -9.1°
1000.8 hPa
82%
-7.6°
6
Windvlaag: 10.2 m/s
78%64 cm
14:00
-3°
Voelt als: -8.2°
1001.9 hPa 1.2 mm
82%
-6.1°
5
Windvlaag: 9.6 m/s
53%64 cm warningclass
15:00
-3°
Voelt als: -7.9°
1002.8 hPa 1.2 mm
82%
-6.9°
4
Windvlaag: 7.6 m/s
79%64 cm warningclass
16:00
-3°
Voelt als: -7.2°
1003.8 hPa
82%
-6.1°
3
Windvlaag: 8 m/s
63%64 cm
17:00
-3°
Voelt als: -7.4°
1004.5 hPa 1.2 mm
82%
-6.1°
3
Windvlaag: 4.4 m/s
76%64 cm warningclass
18:00
-4°
Voelt als: -8.2°
1005.4 hPa 1.3 mm
82%
-5.7°
3
Windvlaag: 5.3 m/s
83%64 cm warningclass
19:00
-4°
Voelt als: -8.3°
1005.9 hPa 1.5 mm
82%
-7.1°
3
Windvlaag: 5.1 m/s
79%65 cm warningclass
20:00
-4°
Voelt als: -8.9°
1006.8 hPa 1.7 mm
82%
-6.7°
3
Windvlaag: 5.2 m/s
81%67 cm warningclass
21:00
-4°
Voelt als: -9.2°
1007.5 hPa 1.8 mm
82%
-6.9°
3
Windvlaag: 5.2 m/s
77%67 cm warningclass
22:00
-5°
Voelt als: -9.5°
1008.2 hPa 1.8 mm
82%
-7.5°
4
Windvlaag: 5.5 m/s
75%67 cm warningclass
23:00
-4°
Voelt als: -10.1°
1008.9 hPa 1.8 mm
82%
-7.0°
4
Windvlaag: 6.5 m/s
78%67 cm warningclass
 05:27     20:08    Daglengte: 14:41 Morgen
00:00
-4°
Voelt als: -10.5°
1009.5 hPa 2.0 mm
82%
-6.5°
5
Windvlaag: 7.6 m/s
81%67 cm warningclass
01:00
-4°
Voelt als: -10.7°
1010.0 hPa 2.1 mm
82%
-6.9°
5
Windvlaag: 7.6 m/s
65%69 cm warningclass
02:00
-5°
Voelt als: -11.2°
1010.8 hPa
81%
-6.8°
6
Windvlaag: 9.6 m/s
64%69 cm
03:00
-5°
Voelt als: -11.2°
1011.2 hPa
82%
-7.3°
5
Windvlaag: 9.6 m/s
60%69 cm
04:00
-5°
Voelt als: -11.4°
1011.6 hPa 2.1 mm
82%
-7.3°
6
Windvlaag: 9.6 m/s
77%69 cm warningclass
05:00
-5°
Voelt als: -11.1°
1012.0 hPa 2.2 mm
82%
-7.5°
5
Windvlaag: 9.4 m/s
76%69 cm warningclass
06:00
-5°
Voelt als: -11.1°
1012.2 hPa 2.2 mm
81%
-7.2°
5
Windvlaag: 10.3 m/s
78%69 cm warningclass
07:00
-4°
Voelt als: -9.5°
1013.3 hPa 2.5 mm
82%
-6.2°
4
Windvlaag: 8.9 m/s
82%69 cm warningclass
08:00
-4°
Voelt als: -9.6°
1014.4 hPa 2.6 mm
80%
-6.4°
4
Windvlaag: 9.6 m/s
79%69 cm warningclass
09:00
-4°
Voelt als: -9.4°
1014.9 hPa
74%
-6.6°
5
Windvlaag: 7.1 m/s
62%69 cm
10:00
-3°
Voelt als: -9.1°
1015.3 hPa
69%
-6.3°
5
Windvlaag: 7.9 m/s
35%69 cm
11:00
-3°
Voelt als: -9.4°
1015.9 hPa
66%
-6.0°
6
Windvlaag: 9.7 m/s
50%71 cm
12:00
-3°
Voelt als: -9.6°
1016.5 hPa
64%
-6.4°
8
Windvlaag: 11 m/s
82%73 cm
13:00
-3°
Voelt als: -8.9°
1017.2 hPa
69%
-5.8°
6
Windvlaag: 10.9 m/s
77%74 cm
14:00
-2°
Voelt als: -8.7°
1017.6 hPa
30%
-6.2°
6
Windvlaag: 9.1 m/s
57%74 cm
15:00
-2°
Voelt als: -8.1°
1017.7 hPa
30%
-6.6°
6
Windvlaag: 8.2 m/s
75%75 cm
16:00
-2°
Voelt als: -8.4°
1017.9 hPa
31%
-6.4°
6
Windvlaag: 9.2 m/s
63%75 cm
17:00
-2°
Voelt als: -8.3°
1018.0 hPa
30%
-6.1°
6
Windvlaag: 8.4 m/s
33%75 cm
18:00
-3°
Voelt als: -8.6°
1018.2 hPa
27%
-6.2°
6
Windvlaag: 8.4 m/s
45%75 cm
19:00
-3°
Voelt als: -8.9°
1018.2 hPa
30%
-6.4°
5
Windvlaag: 8.3 m/s
28%75 cm
20:00
-3°
Voelt als: -9.2°
1018.1 hPa
23%
-6.6°
5
Windvlaag: 8 m/s
28%75 cm
21:00
-4°
Voelt als: -9.7°
1018.4 hPa
18%
-7.3°
5
Windvlaag: 8.3 m/s
21%75 cm
22:00
-4°
Voelt als: -9.9°
1018.5 hPa
16%
-7.3°
6
Windvlaag: 9 m/s
46%75 cm
23:00
-4°
Voelt als: -9.9°
1020.0 hPa
24%
-7.6°
6
Windvlaag: 9.6 m/s
78%75 cm
 05:23     20:12    Daglengte: 14:49 Maandag 06 Apr
00:00
-4°
Voelt als: -10.0°
1020.4 hPa
21%
-7.1°
6
Windvlaag: 9.4 m/s
86%75 cm
01:00
-4°
Voelt als: -10.3°
1020.6 hPa
21%
-7.0°
6
Windvlaag: 9.5 m/s
87%74 cm
02:00
-4°
Voelt als: -10.4°
1020.8 hPa
21%
-6.8°
6
Windvlaag: 9 m/s
79%74 cm
03:00
-5°
Voelt als: -11.2°
1021.0 hPa
21%
-7.5°
6
Windvlaag: 8.3 m/s
78%74 cm
04:00
-5°
Voelt als: -11.0°
1021.1 hPa
21%
-7.7°
5
Windvlaag: 7.9 m/s
78%74 cm
05:00
-5°
Voelt als: -10.9°
1021.1 hPa
21%
-8.0°
5
Windvlaag: 7 m/s
85%74 cm
06:00
-5°
Voelt als: -10.8°
1021.0 hPa
21%
-8.4°
5
Windvlaag: 6.6 m/s
64%74 cm
07:00
-5°
Voelt als: -10.4°
1020.6 hPa
21%
-8.7°
5
Windvlaag: 6.6 m/s
53%74 cm
08:00
-4°
Voelt als: -9.0°
1020.0 hPa
21%
-9.1°
4
Windvlaag: 5.9 m/s
72%74 cm
09:00
-4°
Voelt als: -8.5°
1017.2 hPa
21%
-8.6°
4
Windvlaag: 15.3 m/s
85%74 cm
10:00
-3°
Voelt als: -7.7°
1016.8 hPa
21%
-8.1°
4
Windvlaag: 16.1 m/s
89%75 cm
11:00
-2°
Voelt als: -6.6°
1016.1 hPa
21%
-7.4°
4
Windvlaag: 15.7 m/s
90%75 cm
12:00
-1°
Voelt als: -5.5°
1015.4 hPa
21%
-6.9°
4
Windvlaag: 13.3 m/s
94%73 cm
13:00
-0°
Voelt als: -4.6°
1014.7 hPa
22%
-6.3°
4
Windvlaag: 14.1 m/s
97%72 cm
14:00
Voelt als: -3.8°
1014.1 hPa
34%
-5.9°
4
Windvlaag: 2.2 m/s
100%70 cm
15:00
Voelt als: -4.2°
1013.0 hPa
94%
-5.2°
4
Windvlaag: 11.9 m/s
100%69 cm
16:00
Voelt als: -4.5°
1011.7 hPa 8.2 mm
100%
-4.5°
5
Windvlaag: 10.5 m/s
100%69 cm warningclass
17:00
Voelt als: -4.6°
1010.5 hPa 9.1 mm
100%
-3.7°
5
Windvlaag: 10.4 m/s
100%68 cm warningclass
18:00
Voelt als: -4.6°
1009.1 hPa 9.4 mm
100%
-3.0°
5
Windvlaag: 11.8 m/s
100%67 cm warningclass
19:00
Voelt als: -4.8°
1007.9 hPa 9.5 mm
100%
-2.5°
6
Windvlaag: 12.9 m/s
100%65 cm warningclass
20:00
Voelt als: -5.0°
1006.6 hPa 10.4 mm
100%
-1.9°
6
Windvlaag: 1.9 m/s
100%64 cm warningclass
21:00
Voelt als: -4.9°
1005.9 hPa 10.1 mm
100%
-1.8°
6
Windvlaag: 13.8 m/s
100%62 cm warningclass
22:00
Voelt als: -4.8°
1005.1 hPa 10.3 mm
100%
-1.8°
6
Windvlaag: 16.2 m/s
100%61 cm warningclass
23:00
Voelt als: -4.6°
1004.5 hPa 10.2 mm
100%
-1.6°
6
Windvlaag: 15.8 m/s
99%59 cm warningclass
 05:18     20:16    Daglengte: 14:58 Dinsdag 07 Apr
00:00
Voelt als: -4.3°
1004.1 hPa
100%
-1.4°
6
Windvlaag: 16.6 m/s
95%58 cm
01:00
Voelt als: -4.1°
1003.9 hPa
50%
-1.2°
6
Windvlaag: 16.5 m/s
94%57 cm
02:00
Voelt als: -3.8°
1003.8 hPa
92%
-0.9°
6
Windvlaag: 2.2 m/s
100%55 cm
03:00
Voelt als: -5.4°
1006.8 hPa   -2.3°
7
Windvlaag: 0 m/s
100%
Temp/Neerslag /Baro Onweer/DauwpuntSneeuw
    Temp Baro Neerslag Dauwpunt Wind BewolkingSneeuw  
 05:32     20:04    Daglengte: 14:32 Vandaag
05:00
-7°
Voelt als: -10.4°
994.7 hPa   -10.2°
2
26%64 cm
08:00
-6°
Voelt als: -11.1°
996.8 hPa   -9.3°
3
68%64 cm
11:00
-4°
Voelt als: -9.0°
999.2 hPa   -7.5°
4
72%65 cm
14:00
-3°
Voelt als: -8.2°
1001.9 hPa 1.2 mm -6.1°
5
53%64 cm warningclass
17:00
-3°
Voelt als: -7.4°
1004.5 hPa 2.4 mm -6.1°
3
76%64 cm warningclass
20:00
-4°
Voelt als: -8.9°
1006.8 hPa 4.4 mm -6.7°
3
81%67 cm warningclass
23:00
-4°
Voelt als: -10.1°
1008.9 hPa 5.3 mm -7.0°
4
78%67 cm warningclass
 05:27     20:08    Daglengte: 14:41 Morgen
02:00
-5°
Voelt als: -11.2°
1010.8 hPa 4.1 mm -6.8°
6
64%69 cm warningclass
05:00
-5°
Voelt als: -11.1°
1012.0 hPa 4.3 mm -7.5°
5
76%69 cm warningclass
08:00
-4°
Voelt als: -9.6°
1014.4 hPa 7.3 mm -6.4°
4
79%69 cm warningclass
11:00
-3°
Voelt als: -9.4°
1015.9 hPa   -6.0°
6
50%71 cm
14:00
-2°
Voelt als: -8.7°
1017.6 hPa   -6.2°
6
57%74 cm
17:00
-2°
Voelt als: -8.3°
1018.0 hPa   -6.1°
6
33%75 cm
20:00
-3°
Voelt als: -9.2°
1018.1 hPa   -6.6°
5
28%75 cm
23:00
-4°
Voelt als: -9.9°
1020.0 hPa   -7.6°
6
78%75 cm
 05:23     20:12    Daglengte: 14:49 Maandag 06 Apr
02:00
-4°
Voelt als: -10.4°
1020.8 hPa   -6.8°
6
79%74 cm
05:00
-5°
Voelt als: -10.9°
1021.1 hPa   -8.0°
5
85%74 cm
08:00
-4°
Voelt als: -9.0°
1020.0 hPa   -9.1°
4
72%74 cm
11:00
-2°
Voelt als: -6.6°
1016.1 hPa   -7.4°
4
90%75 cm
14:00
Voelt als: -3.8°
1014.1 hPa   -5.9°
4
100%70 cm
17:00
Voelt als: -4.6°
1010.5 hPa 17.3 mm -3.7°
5
100%68 cm warningclass
20:00
Voelt als: -5.0°
1006.6 hPa 29.3 mm -1.9°
6
100%64 cm warningclass
23:00
Voelt als: -4.6°
1004.5 hPa 30.7 mm -1.6°
6
99%59 cm warningclass
 05:18     20:16    Daglengte: 14:58 Dinsdag 07 Apr
02:00
Voelt als: -3.8°
1003.8 hPa 33.3 mm -0.9°
6
100%55 cm
05:00
Voelt als: -4.7°
1005.9 hPa 31.0 mm -1.5°
7
92% warningclass
08:00
Voelt als: -4.5°
1005.1 hPa 31.5 mm -1.1°
8
92%
11:00
Voelt als: -2.0°
1004.9 hPa 32.3 mm 1.0°
8
90%
14:00
Voelt als: 0.5°
1004.9 hPa 32.6 mm 3.1°
8
87%
17:00
Voelt als: -0.6°
1004.7 hPa 32.6 mm 2.7°
9
89%
20:00
Voelt als: -1.8°
1004.3 hPa 32.6 mm 2.1°
9
91%
23:00
Voelt als: -1.7°
1003.5 hPa 32.6 mm 2.1°
9
91%
 05:13     20:21    Daglengte: 15:08 Woensdag 08 Apr
02:00
Voelt als: -1.7°
1003.1 hPa 33.4 mm 2.6°
9
92%
05:00
Voelt als: -1.4°
1001.2 hPa 33.6 mm 2.7°
8
92%
08:00
Voelt als: -1.1°
999.4 hPa 35.1 mm 2.9°
8
92%
11:00
Voelt als: -0.4°
998.8 hPa 36.9 mm 3.1°
7
92%
14:00
Voelt als: 0.3°
998.0 hPa 38.0 mm 3.2°
7
92%
17:00
Voelt als: -0.7°
996.3 hPa 39.0 mm 2.7°
7
92%
20:00
Voelt als: -1.7°
994.8 hPa 40.9 mm 2.1°
8
92%
23:00
Voelt als: -2.0°
995.2 hPa 43.7 mm 1.9°
9
91%
 05:08     20:25    Daglengte: 15:17 Donderdag 09 Apr
02:00
Voelt als: -2.3°
995.5 hPa 45.6 mm 1.9°
9
91%
05:00
Voelt als: -2.0°
997.4 hPa 46.6 mm 1.9°
8
91%
08:00
Voelt als: -1.9°
999.3 hPa 48.7 mm 1.9°
8
90%
11:00
Voelt als: -1.6°
1001.8 hPa 51.9 mm 1.8°
8
90%
14:00
Voelt als: -1.3°
1004.2 hPa 54.7 mm 1.8°
8
90%
17:00
Voelt als: -2.3°
1007.9 hPa 56.5 mm 0.6°
7
89%
20:00
Voelt als: -3.0°
1011.6 hPa 57.6 mm -0.4°
6
87%
23:00
Voelt als: -2.8°
1012.8 hPa 58.8 mm -0.5°
5
87%
 05:04     20:29    Daglengte: 15:25 Vrijdag 10 Apr
02:00
Voelt als: -2.4°
1014.0 hPa 60.0 mm -0.6°
3
87%
05:00
Voelt als: -1.9°
1013.8 hPa 60.9 mm -1.1°
3
86% warningclass
08:00
Voelt als: -1.3°
1013.6 hPa 61.6 mm -1.3°
2
85% warningclass
11:00
Voelt als: -1.0°
1014.2 hPa 62.0 mm -1.4°
2
87%
14:00
Voelt als: -0.7°
1014.7 hPa 62.1 mm -1.8°
3
89%
17:00
Voelt als: -1.5°
1013.7 hPa 62.1 mm -1.7°
3
89%
20:00
Voelt als: -2.6°
1012.6 hPa 62.1 mm -1.9°
3
89% warningclass
23:00
Voelt als: -3.1°
1012.1 hPa 62.1 mm -1.7°
4
90% warningclass
 04:59     20:33    Daglengte: 15:34 Zaterdag 11 Apr
02:00
Voelt als: -3.5°
1011.6 hPa 124.2 mm -1.4°
4
91% warningclass
08:00
Voelt als: -3.1°
1009.3 hPa 125.8 mm -1.6°
3
92% warningclass
14:00
Voelt als: -1.0°
1009.0 hPa 127.6 mm -1.8°
4
87%
20:00
Voelt als: -2.8°
1011.5 hPa 129.7 mm -0.1°
4
90%
 04:54     20:38    Daglengte: 15:44 Zondag 12 Apr
02:00
Voelt als: -2.3°
1011.9 hPa 131.7 mm -0.2°
4
88%
08:00
Voelt als: -2.3°
1012.7 hPa 134.8 mm -1.2°
3
90% warningclass
14:00
Voelt als: -1.1°
1012.9 hPa 136.7 mm -1.5°
4
90%
20:00
Voelt als: -3.0°
1006.6 hPa 138.4 mm 0.8°
7
92%
 04:49     20:42    Daglengte: 15:53 Maandag 13 Apr
02:00
Voelt als: -3.2°
1011.3 hPa 138.4 mm -1.4°
4
90% warningclass
08:00
Voelt als: -3.0°
1010.9 hPa 138.6 mm -1.8°
4
88% warningclass
14:00
Voelt als: -0.3°
999.5 hPa 139.1 mm 3.0°
7
1%
20:00
Voelt als: -2.5°
994.5 hPa 143.8 mm 3.1°
10
1%
 04:45     20:46    Daglengte: 16:01 Dinsdag 14 Apr
02:00
-5°
Voelt als: -7.2°
1010.2 hPa 1.1 mm -8.1°
1
67%
08:00
-2°
Voelt als: -5.4°
1010.1 hPa 1.4 mm -5.5°
2
77%
14:00
-0°
Voelt als: -3.5°
1010.0 hPa 1.1 mm -3.3°
3
75%
20:00
-1°
Voelt als: -5.4°
1010.0 hPa 1.8 mm -4.2°
3
79%
 04:40     20:51    Daglengte: 16:11 Woensdag 15 Apr
02:00
-3°
Voelt als: -7.3°
1010.0 hPa 1.6 mm -5.5°
3
72%
08:00
-1°
Voelt als: -4.5°
1009.8 hPa 1.7 mm -3.8°
3
73%
14:00
Voelt als: -2.7°
1010.8 hPa 1.2 mm -2.5°
3
68%
20:00
-1°
Voelt als: -5.5°
1011.2 hPa 1.6 mm -4.1°
4
71%
 04:35     20:55    Daglengte: 16:20 Donderdag 16 Apr
02:00
-2°
Voelt als: -6.2°
1011.1 hPa 1.5 mm -4.5°
4
77%
08:00
-0°
Voelt als: -4.3°
1009.5 hPa 2.0 mm -3.0°
4
81%
14:00
Voelt als: -2.7°
1009.3 hPa 1.9 mm -1.2°
4
81%
20:00
-0°
Voelt als: -4.7°
1009.8 hPa 2.0 mm -2.7°
4
76%
 04:30     21:00    Daglengte: 16:30 Vrijdag 17 Apr
02:00
-1°
Voelt als: -5.1°
1010.7 hPa 1.2 mm -3.6°
3
73%
08:00
Voelt als: -3.4°
1010.7 hPa 1.1 mm -2.7°
3
76%
14:00
Voelt als: -1.4°
1010.4 hPa 1.0 mm -1.3°
3
72%
20:00
Voelt als: -2.5°
1009.6 hPa 0.9 mm -1.9°
3
70%
 04:25     21:04    Daglengte: 16:39 Zaterdag 18 Apr
02:00
-0°
Voelt als: -3.8°
1009.8 hPa 1.1 mm -2.7°
3
75%
08:00
Voelt als: -3.5°
1009.6 hPa 1.1 mm -1.8°
4
76%
14:00
Voelt als: -2.0°
1009.4 hPa 1.3 mm -0.1°
4
73%
20:00
Voelt als: -1.6°
1008.7 hPa 1.8 mm -0.3°
4
78%
 04:20     21:09    Daglengte: 16:49 Zondag 19 Apr
02:00
Voelt als: -3.0°
1007.7 hPa 1.7 mm -1.1°
4
80%
  CAPE Lifted Index Hail Supercell Tornado SRH 3km CL BTM PRES CL TOP PRES Swiss DWD icon SMHI TS
 05:32     20:04    Daglengte: 14:32 Vandaag
05:00 0 J/kg 3.4 K 0 % 0 % 0 % 0 m²/s² 0 0 5.53 3
06:00 0 J/kg 3.1 K 0 % 0 % 0 % 0 m²/s² 0 0 5.23 3
07:00 0 J/kg 2.9 K 0 % 0 % 0 % 0 m²/s² 0 0 4.91 3
08:00 0 J/kg 2.8 K 0 % 0 % 0 % 0 m²/s² 0 0 4.12 85
09:00 0 J/kg 1.7 K 0 % 0 % 0 % 0 m²/s² 0 0 3.71 3
10:00 0 J/kg 0.3 K 0 % 0 % 0 % 0 m²/s² 0 0 2.43 85
11:00 73 J/kg 0.8 K 0 % 0 % 0 % 0 m²/s² 0 0 3.95 85
12:00 70 J/kg 1.3 K 0 % 0 % 0 % 0 m²/s² 0 0 4.06 85
13:00 54 J/kg 1.7 K 0 % 0 % 0 % 0 m²/s² 0 0 4.19 85
14:00 26 J/kg 1.6 K 0 % 0 % 0 % 0 m²/s² 0 0 3.94 85
15:00 55 J/kg 1.8 K 0 % 0 % 0 % 0 m²/s² 0 0 3.54 85
16:00 61 J/kg 1.7 K 0 % 0 % 0 % 0 m²/s² 0 0 4.16 85
17:00 89 J/kg 1.8 K 0 % 0 % 0 % 0 m²/s² 0 0 3.24 85
18:00 95 J/kg 2.4 K 0 % 0 % 0 % 0 m²/s² 0 0 3.75 85
19:00 36 J/kg 1.4 K 0 % 0 % 0 % 0 m²/s² 0 0 2.24 85
20:00 65 J/kg 2.8 K 0 % 0 % 0 % 0 m²/s² 0 0 3.61 85
21:00 45 J/kg 3.1 K 0 % 0 % 0 % 0 m²/s² 0 0 3.97 85
22:00 20 J/kg 3.2 K 0 % 0 % 0 % 0 m²/s² 0 0 4.64 85
23:00 35 J/kg 3.4 K 0 % 0 % 0 % 0 m²/s² 0 0 4.57 85
 05:27     20:08    Daglengte: 14:41 Morgen
00:00 0 J/kg 2.5 K 0 % 0 % 0 % 0 m²/s² 0 0 3.07 85
01:00 10 J/kg 3.3 K 0 % 0 % 0 % 0 m²/s² 0 0 4.26 85
02:00 35 J/kg 3.8 K 0 % 0 % 0 % 0 m²/s² 0 0 5.21 85
03:00 24 J/kg 4.5 K 0 % 0 % 0 % 0 m²/s² 0 0 6.03 85
04:00 0 J/kg 4.5 K 0 % 0 % 0 % 0 m²/s² 0 0 6.24 85
05:00 5 J/kg 4.0 K 0 % 0 % 0 % 0 m²/s² 0 0 4.96 85
06:00 18 J/kg 4.3 K 0 % 0 % 0 % 0 m²/s² 0 0 5.89 85
07:00 4 J/kg 4.8 K 0 % 0 % 0 % 0 m²/s² 0 0 5.94 85
08:00 0 J/kg 4.4 K 0 % 0 % 0 % 0 m²/s² 0 0 5.63 85
09:00 4 J/kg 4.4 K 0 % 0 % 0 % 0 m²/s² 0 0 5.36 1
10:00 2 J/kg 4.7 K 0 % 0 % 0 % 0 m²/s² 0 0 5.39 1
11:00 6 J/kg 3.2 K 0 % 0 % 0 % 0 m²/s² 0 0 3.98 2
12:00 85 J/kg 3.4 K 0 % 0 % 0 % 0 m²/s² 0 0 4.06 2
13:00 83 J/kg 4.8 K 0 % 0 % 0 % 0 m²/s² 0 0 6.03 2
14:00 15 J/kg 6.2 K 0 % 0 % 0 % 0 m²/s² 0 0 6.95 3
15:00 26 J/kg 7.6 K 0 % 0 % 0 % 0 m²/s² 0 0 8.41 1
16:00 6 J/kg 9.0 K 0 % 0 % 0 % 0 m²/s² 0 0 10.38 2
17:00 0 J/kg 11.4 K 0 % 0 % 0 % 0 m²/s² 0 0 13.26 2
18:00 17 J/kg 12.5 K 0 % 0 % 0 % 0 m²/s² 0 0 16.46 2
19:00 17 J/kg 13.6 K 0 % 0 % 0 % 0 m²/s² 0 0 19.63 2
20:00 0 J/kg 13.8 K 0 % 0 % 0 % 0 m²/s² 0 0 19.92 2
21:00 0 J/kg 14.7 K 0 % 0 % 0 % 0 m²/s² 0 0 19.05 1
22:00 0 J/kg 15.9 K 0 % 0 % 0 % 0 m²/s² 0 0 18.81 3
23:00 0 J/kg 17.6 K 0 % 0 % 0 % 0 m²/s² 0 0 19.37 2
 05:23     20:12    Daglengte: 14:49 Maandag 06 Apr
00:00 0 J/kg 17.5 K 0 % 0 % 0 % 0 m²/s² 0 0 18.25 3
01:00 0 J/kg 17.4 K 0 % 0 % 0 % 0 m²/s² 0 0 18.06 3
02:00 0 J/kg 17.1 K 0 % 0 % 0 % 0 m²/s² 0 0 17.67 3
03:00 0 J/kg 16.4 K 0 % 0 % 0 % 0 m²/s² 0 0 16.94 3
04:00 0 J/kg 15.2 K 0 % 0 % 0 % 0 m²/s² 0 0 15.74 3
05:00 0 J/kg 14.4 K 0 % 0 % 0 % 0 m²/s² 0 0 14.94 3
06:00 0 J/kg 12.8 K 0 % 0 % 0 % 0 m²/s² 0 0 13.28 3
07:00 0 J/kg 11.8 K 0 % 0 % 0 % 0 m²/s² 0 0 12.28 3
08:00 0 J/kg 12.0 K 0 % 0 % 0 % 0 m²/s² 0 0 12.48 3
09:00 0 J/kg 11.4 K 0 % 0 % 0 % 0 m²/s² 0 0 11.85 3
10:00 0 J/kg 10.4 K 0 % 0 % 0 % 0 m²/s² 0 0 10.79 3
11:00 0 J/kg 10.3 K 0 % 0 % 0 % 0 m²/s² 0 0 10.66 3
12:00 0 J/kg 10.0 K 0 % 0 % 0 % 0 m²/s² 0 0 10.33 3
13:00 0 J/kg 9.9 K 0 % 0 % 0 % 0 m²/s² 0 0 10.23 3
14:00 0 J/kg 9.6 K 0 % 0 % 0 % 0 m²/s² 0 0 9.9 3
15:00 0 J/kg 8.8 K 0 % 0 % 0 % 0 m²/s² 0 0 9.04 71
16:00 0 J/kg 8.2 K 0 % 0 % 0 % 0 m²/s² 0 0 8.41 71
17:00 0 J/kg 6.2 K 0 % 0 % 0 % 0 m²/s² 0 0 6.41 71
18:00 0 J/kg 4.2 K 0 % 0 % 0 % 0 m²/s² 0 0 4.44 71
19:00 0 J/kg 4.7 K 0 % 0 % 0 % 0 m²/s² 0 0 6.14 73
20:00 0 J/kg 4.0 K 0 % 0 % 0 % 0 m²/s² 0 0 4.75 73
21:00 1 J/kg 4.5 K 0 % 0 % 0 % 0 m²/s² 0 0 4.95 73
22:00 1 J/kg 5.5 K 0 % 0 % 0 % 0 m²/s² 0 0 5.74 73
23:00 1 J/kg 5.6 K 0 % 0 % 0 % 0 m²/s² 0 0 5.84 71
 05:18     20:16    Daglengte: 14:58 Dinsdag 07 Apr
00:00 1 J/kg 5.3 K 0 % 0 % 0 % 0 m²/s² 0 0 5.6 61
01:00 1 J/kg 5.8 K 0 % 0 % 0 % 0 m²/s² 0 0 6.04 3
02:00 1 J/kg 6.1 K 0 % 0 % 0 % 0 m²/s² 0 0 6.43 3
03:00 0 J/kg 0.0 K 0 % 0 % 0 % 0 m²/s² 0 0 13.83
Temp Baro Wind Neerslag
  EWN Forecast EWN WRFDA DWD ICON FMI HIRLAM MET Norway GFS
 05:32     20:04    Daglengte: 14:32 Vandaag
05:00 -6.9° 994.7 hPa 1.9 m/s 0.0 mm -14.7° 992.6 hPa 1.2 m/s 8.8 mm -5.7° 994.9 hPa 1.1 m/s -1.8 mm -6.6° 994.8 hPa 3.2 m/s 0.0 mm -7.8° 994.8 hPa 2.7 m/s -9.2° 995.2 hPa 1.4 m/s
08:00 -6.0° 996.8 hPa 3.4 m/s 0.0 mm -9.6° 994.9 hPa 5.6 m/s 13.3 mm -5.9° 997.1 hPa 1.2 m/s 0.2 mm -5.1° 996.6 hPa 4.5 m/s 0.0 mm -6.6° 996.8 hPa 3.7 m/s -6.8° 997.6 hPa 2.4 m/s
11:00 -3.8° 999.2 hPa 4.0 m/s 0.0 mm -3.5° 996.7 hPa 6.8 m/s 13.7 mm -4.9° 999.8 hPa 1.9 m/s 0.4 mm -3.3° 998.8 hPa 4.2 m/s 0.0 mm -4.1° 999.2 hPa 4.7 m/s -4.1° 1000.7 hPa 3.8 m/s
14:00 -2.8° 1001.9 hPa 4.7 m/s 1.2 mm -3.0° 1000.5 hPa 6.3 m/s 14.2 mm -4.0° 1002.6 hPa 2.5 m/s 0.8 mm -2.9° 1001.8 hPa 5.0 m/s 0.0 mm -2.5° 1001.8 hPa 5.1 m/s -3.1° 1003.7 hPa 5.5 m/s
17:00 -3.3° 1004.5 hPa 2.9 m/s 2.4 mm -4.1° 1003.2 hPa 5.7 m/s 14.2 mm -3.9° 1005.8 hPa 1.9 m/s 1.4 mm -2.7° 1004.0 hPa 4.1 m/s 0.0 mm -3.4° 1004.4 hPa 0.5 m/s -3.4° 1005.9 hPa 5.6 m/s
20:00 -4.2° 1006.8 hPa 3.3 m/s 4.4 mm -4.6° 1005.2 hPa 4.7 m/s 18.6 mm -4.3° 1007.4 hPa 1.6 m/s 1.1 mm -3.6° 1005.9 hPa 3.5 m/s 0.0 mm -5.2° 1006.8 hPa 3.1 m/s -5.3° 1008.5 hPa 5.2 m/s
23:00 -4.5° 1008.9 hPa 4.4 m/s 5.3 mm -5.6° 1007.2 hPa 5.9 m/s 23.6 mm -4.5° 1009.5 hPa 2.8 m/s 0.8 mm -4.2° 1007.8 hPa 4.4 m/s 0.0 mm -5.3° 1009.0 hPa 4.4 m/s -5.9° 1010.2 hPa 5.0 m/s
 05:27     20:08    Daglengte: 14:41 Morgen
02:00 -4.6° 1010.8 hPa 5.7 m/s 4.1 mm -6.2° 1009.2 hPa 3.4 m/s 28.2 mm -4.7° 1012.4 hPa 3.8 m/s 0.7 mm -3.9° 1008.3 hPa 4.7 m/s 0.0 mm -5.3° 1010.9 hPa 8.0 m/s -5.8° 1012.6 hPa 5.3 m/s
05:00 -4.8° 1012.0 hPa 5.3 m/s 4.3 mm -5.2° 1010.5 hPa 5.5 m/s 29.9 mm -4.9° 1014.0 hPa 3.1 m/s 0.7 mm -4.8° 1009.9 hPa 1.8 m/s 0.0 mm -5.1° 1012.0 hPa 6.0 m/s -6.1° 1013.6 hPa 7.6 m/s
08:00 -4.3° 1014.4 hPa 4.0 m/s 7.3 mm -4.4° 1011.9 hPa 6.9 m/s 30.1 mm -4.9° 1015.9 hPa 4.3 m/s 0.6 mm -3.4° 1011.2 hPa 3.3 m/s 0.0 mm -4.8° 1014.8 hPa 2.1 m/s -3.8° 1015.4 hPa 7.7 m/s
11:00 -3.0° 1015.9 hPa 6.4 m/s 0.0 mm -2.9° 1012.4 hPa 10.2 m/s 32.7 mm -4.4° 1017.2 hPa 5.4 m/s 0.0 mm -2.3° 1012.5 hPa 5.1 m/s 0.0 mm -3.1° 1016.5 hPa 6.0 m/s -2.0° 1017.6 hPa 4.5 m/s
14:00 -2.4° 1017.6 hPa 6.3 m/s 0.0 mm -2.3° 1015.4 hPa 8.7 m/s 47.5 mm -3.7° 1018.1 hPa 6.0 m/s 0.0 mm -1.7° 1013.2 hPa 6.1 m/s 0.0 mm -2.6° 1018.3 hPa 6.1 m/s -2.3° 1019.3 hPa 3.1 m/s
17:00 -2.4° 1018.0 hPa 5.5 m/s 0.0 mm -3.5° 1016.8 hPa 5.0 m/s 53.1 mm -3.5° 1017.8 hPa 5.6 m/s 0.0 mm -1.6° 1013.4 hPa 5.1 m/s 0.0 mm -2.5° 1018.9 hPa 7.3 m/s -2.6° 1020.1 hPa 5.4 m/s
20:00 -3.3° 1018.1 hPa 5.3 m/s 0.0 mm -5.0° 1016.6 hPa 3.4 m/s 53.1 mm -3.8° 1017.0 hPa 3.9 m/s 0.0 mm -1.7° 1014.3 hPa 5.9 m/s 0.0 mm -3.5° 1019.4 hPa 7.5 m/s -5.6° 1019.8 hPa 2.6 m/s
23:00 -3.7° 1020.0 hPa 5.6 m/s 0.0 mm -6.3° 1015.7 hPa 5.8 m/s 53.2 mm -4.2° 1017.1 hPa 2.1 m/s 0.0 mm -3.6° 1020.5 hPa 8.1 m/s -6.9° 1019.0 hPa 3.0 m/s
 05:23     20:12    Daglengte: 14:49 Maandag 06 Apr
02:00 -4.0° 1020.8 hPa 5.9 m/s 0.0 mm -4.5° 1012.5 hPa 7.2 m/s 53.2 mm -4.7° 1016.3 hPa 1.0 m/s 0.0 mm -4.0° 1022.0 hPa 7.6 m/s -6.8° 1017.3 hPa 3.6 m/s
05:00 -4.8° 1021.1 hPa 4.9 m/s 0.0 mm -2.8° 1009.7 hPa 9.2 m/s 53.3 mm -5.1° 1015.6 hPa 1.2 m/s 0.0 mm -5.4° 1022.9 hPa 5.7 m/s -5.9° 1015.0 hPa 3.9 m/s
08:00 -4.2° 1020.0 hPa 3.6 m/s 0.0 mm -1.7° 1006.5 hPa 11.2 m/s 54.0 mm -4.9° 1014.1 hPa 1.3 m/s 0.0 mm -4.5° 1023.1 hPa 3.5 m/s -4.3° 1012.6 hPa 4.6 m/s
11:00 -2.0° 1016.1 hPa 3.8 m/s 0.0 mm 0.0° 1004.5 hPa 11.1 m/s 57.2 mm -3.8° 1012.6 hPa 1.5 m/s 0.0 mm -1.9° 1021.2 hPa 3.3 m/s -1.9° 1010.9 hPa 5.1 m/s
14:00 0.3° 1014.1 hPa 3.9 m/s 0.0 mm 1.3° 1003.6 hPa 11.5 m/s 60.6 mm -2.4° 1010.2 hPa 2.8 m/s 0.0 mm 0.7° 1019.2 hPa 3.1 m/s 1.1° 1009.4 hPa 5.1 m/s
17:00 0.2° 1010.5 hPa 4.8 m/s 17.3 mm 2.6° 1002.0 hPa 9.1 m/s 70.7 mm -2.6° 1007.5 hPa 3.9 m/s 1.6 mm 0.4° 1014.6 hPa 4.5 m/s 2.9° 1007.4 hPa 4.5 m/s
20:00 0.3° 1006.6 hPa 5.8 m/s 29.3 mm 3.9° 1000.8 hPa 8.1 m/s 79.2 mm -1.7° 1003.8 hPa 4.2 m/s 4.3 mm 0.2° 1010.0 hPa 5.8 m/s 3.5° 1005.8 hPa 5.5 m/s
23:00 0.5° 1004.5 hPa 5.8 m/s 30.7 mm 4.0° 999.7 hPa 8.4 m/s 83.8 mm 0.3° 1000.2 hPa 3.5 m/s 4.1 mm 0.0° 1008.9 hPa 5.8 m/s 3.7° 1004.8 hPa 6.7 m/s
 05:18     20:16    Daglengte: 14:58 Dinsdag 07 Apr
02:00 1.2° 1003.8 hPa 5.8 m/s 33.3 mm 3.7° 1000.5 hPa 9.3 m/s 99.6 mm 2.3° 998.7 hPa 3.1 m/s 0.1 mm -0.1° 1007.7 hPa 5.9 m/s 4.6° 1004.6 hPa 6.8 m/s
05:00 1.0° 1005.9 hPa 7.2 m/s 31.0 mm 0.7° 1006.0 hPa 7.3 m/s 4.4° 1005.2 hPa 5.9 m/s 31.0 mm
08:00 1.3° 1005.1 hPa 7.8 m/s 31.5 mm 1.1° 1005.1 hPa 8.0 m/s 4.1° 1005.2 hPa 5.3 m/s 31.5 mm
11:00 3.3° 1004.9 hPa 7.8 m/s 32.3 mm 3.3° 1004.9 hPa 8.0 m/s 3.3° 1006.0 hPa 6.1 m/s 32.3 mm
14:00 5.2° 1004.9 hPa 7.7 m/s 32.6 mm 5.4° 1004.6 hPa 7.9 m/s 2.8° 1007.6 hPa 5.4 m/s 32.6 mm
17:00 4.6° 1004.7 hPa 8.5 m/s 32.6 mm 4.8° 1004.5 hPa 8.8 m/s 2.5° 1007.0 hPa 6.2 m/s 32.6 mm
20:00 3.8° 1004.3 hPa 9.3 m/s 32.6 mm 4.1° 1004.3 hPa 9.6 m/s 0.6° 1004.0 hPa 6.4 m/s 32.6 mm
23:00 3.8° 1003.5 hPa 9.1 m/s 32.6 mm 4.2° 1003.9 hPa 9.3 m/s 0.1° 999.4 hPa 6.5 m/s 32.6 mm
 05:13     20:21    Daglengte: 15:08 Woensdag 08 Apr
02:00 3.8° 1003.1 hPa 9.0 m/s 33.4 mm 4.2° 1003.5 hPa 9.1 m/s -0.2° 998.3 hPa 7.7 m/s 33.4 mm
05:00 3.9° 1001.2 hPa 8.3 m/s 33.6 mm 4.2° 1001.7 hPa 8.4 m/s 0.0° 996.2 hPa 6.8 m/s 33.6 mm
08:00 3.9° 999.4 hPa 7.6 m/s 35.1 mm 4.2° 999.9 hPa 7.7 m/s 0.6° 993.9 hPa 6.7 m/s 35.1 mm
11:00 4.4° 998.8 hPa 7.1 m/s 36.9 mm 4.6° 999.4 hPa 7.3 m/s 1.8° 991.6 hPa 4.8 m/s 36.9 mm
14:00 4.7° 998.0 hPa 6.8 m/s 38.0 mm 5.0° 998.9 hPa 7.0 m/s 2.0° 988.3 hPa 4.9 m/s 38.0 mm
17:00 4.2° 996.3 hPa 7.3 m/s 39.0 mm 4.4° 996.9 hPa 7.8 m/s 1.7° 989.6 hPa 1.6 m/s 39.0 mm
20:00 3.6° 994.8 hPa 8.2 m/s 40.9 mm 3.8° 994.9 hPa 8.6 m/s 1.6° 994.1 hPa 3.3 m/s 40.9 mm
23:00 3.5° 995.2 hPa 8.7 m/s 43.7 mm 3.8° 994.9 hPa 8.6 m/s 0.4° 998.9 hPa 8.9 m/s 43.7 mm
 05:08     20:25    Daglengte: 15:17 Donderdag 09 Apr
02:00 3.4° 995.5 hPa 8.9 m/s 45.6 mm 3.7° 994.9 hPa 8.7 m/s -0.4° 1002.0 hPa 11.1 m/s 45.6 mm
05:00 3.3° 997.4 hPa 8.1 m/s 46.6 mm 3.8° 996.8 hPa 8.1 m/s -1.1° 1004.7 hPa 8.7 m/s 46.6 mm
08:00 3.4° 999.3 hPa 7.7 m/s 48.7 mm 3.8° 998.6 hPa 7.4 m/s -1.4° 1007.4 hPa 11.5 m/s 48.7 mm
11:00 3.6° 1001.8 hPa 7.9 m/s 51.9 mm 4.1° 1001.0 hPa 8.0 m/s -1.7° 1011.0 hPa 6.8 m/s 51.9 mm
14:00 3.9° 1004.2 hPa 8.4 m/s 54.7 mm 4.4° 1003.3 hPa 8.5 m/s -1.2° 1014.1 hPa 7.0 m/s 54.7 mm
17:00 2.9° 1007.9 hPa 7.3 m/s 56.5 mm 3.3° 1007.1 hPa 7.0 m/s -1.4° 1016.3 hPa 10.5 m/s 56.5 mm
20:00 1.8° 1011.6 hPa 5.8 m/s 57.6 mm 2.2° 1011.0 hPa 5.6 m/s -2.2° 1018.4 hPa 8.1 m/s 57.6 mm
23:00 1.5° 1012.8 hPa 4.6 m/s 58.8 mm 1.9° 1012.1 hPa 4.4 m/s -2.6° 1020.3 hPa 6.9 m/s 58.8 mm
 05:04     20:29    Daglengte: 15:25 Vrijdag 10 Apr
02:00 1.2° 1014.0 hPa 3.4 m/s 60.0 mm 1.6° 1013.3 hPa 3.2 m/s -2.8° 1021.6 hPa 6.0 m/s 60.0 mm
05:00 1.0° 1013.8 hPa 2.6 m/s 60.9 mm 1.4° 1013.0 hPa 2.5 m/s -3.1° 1022.6 hPa 3.6 m/s 60.9 mm
08:00 0.9° 1013.6 hPa 1.9 m/s 61.6 mm 1.2° 1012.8 hPa 1.9 m/s -2.8° 1022.7 hPa 2.1 m/s 61.6 mm
11:00 1.5° 1014.2 hPa 2.3 m/s 62.0 mm 1.9° 1013.4 hPa 2.5 m/s -1.8° 1023.3 hPa 1.2 m/s 62.0 mm
14:00 2.2° 1014.7 hPa 2.9 m/s 62.1 mm 2.5° 1014.0 hPa 3.0 m/s -0.9° 1022.8 hPa 1.5 m/s 62.1 mm
17:00 1.7° 1013.7 hPa 3.0 m/s 62.1 mm 1.9° 1013.0 hPa 3.1 m/s -0.2° 1020.8 hPa 2.2 m/s 62.1 mm
20:00 0.9° 1012.6 hPa 3.2 m/s 62.1 mm 1.2° 1012.1 hPa 3.2 m/s -2.9° 1018.7 hPa 3.1 m/s 62.1 mm
23:00 0.7° 1012.1 hPa 3.6 m/s 62.1 mm 1.1° 1011.9 hPa 3.5 m/s -3.8° 1015.1 hPa 4.0 m/s 62.1 mm
 04:59     20:33    Daglengte: 15:34 Zaterdag 11 Apr
02:00 0.6° 1011.6 hPa 4.0 m/s 62.1 mm 1.0° 1011.6 hPa 3.9 m/s -3.7° 1011.1 hPa 5.3 m/s 62.1 mm
08:00 0.5° 1009.3 hPa 3.2 m/s 62.9 mm 0.6° 1009.7 hPa 2.9 m/s -0.9° 1005.2 hPa 6.9 m/s 62.9 mm
14:00 2.4° 1009.0 hPa 3.5 m/s 63.9 mm 2.4° 1009.7 hPa 3.4 m/s 2.7° 1001.1 hPa 4.7 m/s 63.9 mm
20:00 1.4° 1011.5 hPa 4.3 m/s 65.0 mm 1.3° 1012.2 hPa 4.4 m/s 2.3° 1004.1 hPa 3.2 m/s 65.0 mm
 04:54     20:38    Daglengte: 15:44 Zondag 12 Apr
02:00 1.6° 1011.9 hPa 4.0 m/s 66.2 mm 1.5° 1012.1 hPa 4.0 m/s 3.0° 1009.3 hPa 4.0 m/s 66.2 mm
08:00 0.9° 1012.7 hPa 2.8 m/s 67.8 mm 0.7° 1012.8 hPa 2.6 m/s 2.8° 1011.8 hPa 4.8 m/s 67.8 mm
14:00 2.7° 1012.9 hPa 4.2 m/s 68.7 mm 2.7° 1012.8 hPa 4.1 m/s 2.6° 1013.5 hPa 5.6 m/s 68.7 mm
20:00 2.3° 1006.6 hPa 7.1 m/s 69.2 mm 2.3° 1006.1 hPa 7.4 m/s 2.6° 1012.0 hPa 4.3 m/s 69.2 mm
 04:49     20:42    Daglengte: 15:53 Maandag 13 Apr
02:00 0.9° 1011.3 hPa 3.9 m/s 69.2 mm 0.8° 1011.6 hPa 3.8 m/s 1.6° 1008.2 hPa 5.3 m/s 69.2 mm
08:00 1.0° 1010.9 hPa 3.9 m/s 69.4 mm 0.7° 1011.6 hPa 3.7 m/s 3.8° 1003.2 hPa 6.1 m/s 69.4 mm
14:00 4.4° 999.5 hPa 7.0 m/s 69.5 mm 4.4° 999.5 hPa 7.0 m/s 69.5 mm
20:00 3.4° 994.5 hPa 10.0 m/s 74.1 mm 3.4° 994.5 hPa 10.0 m/s 74.1 mm
 04:45     20:46    Daglengte: 16:01 Dinsdag 14 Apr
02:00 -4.8° 1010.2 hPa 1.5 m/s 1.1 mm
08:00 -2.3° 1010.1 hPa 2.2 m/s 1.4 mm
14:00 -0.1° 1010.0 hPa 2.9 m/s 1.1 mm
20:00 -1.3° 1010.0 hPa 3.4 m/s 1.8 mm
 04:40     20:51    Daglengte: 16:11 Woensdag 15 Apr
02:00 -2.9° 1010.0 hPa 3.3 m/s 1.6 mm
08:00 -1.1° 1009.8 hPa 2.7 m/s 1.7 mm
14:00 0.7° 1010.8 hPa 3.1 m/s 1.2 mm
20:00 -1.2° 1011.2 hPa 3.7 m/s 1.6 mm
 04:35     20:55    Daglengte: 16:20 Donderdag 16 Apr
02:00 -1.8° 1011.1 hPa 3.6 m/s 1.5 mm
08:00 -0.2° 1009.5 hPa 3.7 m/s 2.0 mm
14:00 1.3° 1009.3 hPa 4.2 m/s 1.9 mm
20:00 -0.3° 1009.8 hPa 4.1 m/s 2.0 mm
 04:30     21:00    Daglengte: 16:30 Vrijdag 17 Apr
02:00 -1.1° 1010.7 hPa 3.4 m/s 1.2 mm
08:00 0.1° 1010.7 hPa 3.0 m/s 1.1 mm
14:00 1.6° 1010.4 hPa 2.8 m/s 1.0 mm
20:00 0.7° 1009.6 hPa 2.8 m/s 0.9 mm
 04:25     21:04    Daglengte: 16:39 Zaterdag 18 Apr
02:00 -0.3° 1009.8 hPa 2.9 m/s 1.1 mm
08:00 0.6° 1009.6 hPa 3.8 m/s 1.1 mm
14:00 2.1° 1009.4 hPa 4.3 m/s 1.3 mm
20:00 2.0° 1008.7 hPa 3.7 m/s 1.8 mm
 04:20     21:09    Daglengte: 16:49 Zondag 19 Apr
02:00 1.0° 1007.7 hPa 3.9 m/s 1.7 mm
FMI Hirlam - 7.5 km EWN WRFDA - 12 km DWD ICON - 7 km GFS - 25 km Basiskaart






























































Updatetijd (Europe/Amsterdam) Resolutie Lengte Stap
FMI Hirlam 01:45, 07:45, 13:45, 19:45 7.5 km 49h 1h
EWN WRFDA 03:45, 09:45, 15:45, 21:45 12 km 73h 1h
DWD ICON 23:45, 05:45, 11:45, 17:45 7 km 75h 1h
GFS 01:45, 07:45, 13:45, 19:45 25 km 237h 3h
30+ mm
25-30 mm
20-25 mm
15-20 mm
10-15 mm
6-10 mm
4-6 mm
2-4 mm
1-2 mm
0.5-1 mm
0.2-0.5 mm
0.1-0.2 mm
30+ mm
25-30 mm
20-25 mm
15-20 mm
10-15 mm
6-10 mm
4-6 mm
2-4 mm
1-2 mm
0.5-1 mm
0.2-0.5 mm
0.1-0.2 mm
Sneeuwval
Natte sneeuw
Hagel
Vorst
30+ mm
25-30 mm
20-25 mm
15-20 mm
10-15 mm
6-10 mm
4-6 mm
2-4 mm
1-2 mm
0.5-1 mm
0.2-0.5 mm
0.1-0.2 mm
Sneeuwval
Natte sneeuw
Hagel
Vorst
Onweer
50 mm
40 mm
30 mm
26 mm
22 mm
18 mm
14 mm
10 mm
9 mm
8 mm
7 mm
6 mm
5 mm
4.5 mm
4 mm
3.5 mm
3 mm
2.5 mm
2 mm
1.5 mm
1 mm
0.8 mm
0.6 mm
0.4 mm
0.2 mm
0.05 mm
35°
30°
25°
20°
15°
10°
-5°
-10°
-15°
-20°
-25°
-30°
-35°
33> m/s
29 m/s
25 m/s
21 m/s
17 m/s
14 m/s
11 m/s
8 m/s
5 m/s
3 m/s
0 m/s
2600 J/kg
2400 J/kg
2200 J/kg
2000 J/kg
1800 J/kg
1600 J/kg
1400 J/kg
1200 J/kg
1000 J/kg
800 J/kg
600 J/kg
400 J/kg
200 J/kg
70 dBZ
65 dBZ
60 dBZ
55 dBZ
50 dBZ
45 dBZ
40 dBZ
35 dBZ
30 dBZ
25 dBZ
20 dBZ
15 dBZ
10 dBZ
5 dBZ
-1 K
-2 K
-3 K
-4 K
-5 K
-6 K
-7 K
-8 K
-9 K
950 m²/s²
900 m²/s²
850 m²/s²
800 m²/s²
750 m²/s²
700 m²/s²
650 m²/s²
600 m²/s²
550 m²/s²
500 m²/s²
450 m²/s²
400 m²/s²
350 m²/s²
300 m²/s²
250 m²/s²
200 m²/s²
150 m²/s²
100 m²/s²
46 m/s
44 m/s
42 m/s
40 m/s
38 m/s
36 m/s
34 m/s
32 m/s
30 m/s
28 m/s
26 m/s
24 m/s
22 m/s
20 m/s
16 m/s
12 m/s
8 m/s
4 m/s
30 m/s
28 m/s
26 m/s
24 m/s
22 m/s
20 m/s
18 m/s
16 m/s
14 m/s
12 m/s
10 m/s
8 m/s
6 m/s
4 m/s
2 m/s
3.0
2.8
2.6
2.4
2.2
2.0
1.8
1.6
1.4
1.2
1.0
0.8
0.6
0.4
0.2
15
14
13
12
11
10
9
8
7
6
5
4
3
2
1
90%
80%
70%
60%
50%
40%
30%
20%
10%
42
40
38
36
34
32
30
28
26
24
22
20
18
16
14
12
90+ cm
80-90 cm
70-80 cm
60-70 cm
50-60 cm
40-50 cm
30-40 cm
20-30 cm
10-20 cm
1-10 cm
Sneeuwval
Natte sneeuw
Regen
>120 mm
115 mm
110 mm
105 mm
100 mm
95 mm
90 mm
85 mm
80 mm
75 mm
70 mm
65 mm
60 mm
55 mm
50 mm
45 mm
45 mm
40 mm
35 mm
30 mm
25 mm
20 mm
15 mm
10 mm
5 mm
0.1 mm
960 hPa
880 hPa
800 hPa
720 hPa
640 hPa
560 hPa
584 gpdm
568 gpdm
552 gpdm
536 gpdm
520 gpdm
504 gpdm
488 gpdm
Extreem zwaar Noodweer Kans op onweer
15% 15% 5% 50% 15%

Dag




Kaart






35°
30°
25°